Regional Weather Roundup
Issued by NWS

Home | Current Version | Previous Version | Graphics & Text | Print | Product List | Glossary On
Versions: 1 2 3 4 5 6 7 8 9 10 11 12 13 14 15 16 17 18 19 20 21 22 23 24 25 26 27 28 29 30 31 32 33 34 35 36 37 38 39 40 41 42 43 44 45 46 47 48 49 50
000
ASUS43 KMKX 261411
RWRWI

WISCONSIN REGIONAL WEATHER ROUNDUP
NATIONAL WEATHER SERVICE MILWAUKEE/SULLIVAN WI
900 AM CDT FRI MAY 26 2017

NOTE: "FAIR" INDICATES FEW OR NO CLOUDS BELOW 12,000 FEET WITH NO
SIGNIFICANT WEATHER AND/OR OBSTRUCTIONS TO VISIBILITY.

WIZ001-002-006>008-014>016-023>028-261500-
NORTHWEST WISCONSIN

CITY           SKY/WX    TMP DP  RH WIND       PRES   REMARKS
SUPERIOR ARPT  NOT AVBL
ASHLAND        CLOUDY    58  54  86 NE3       29.76S
HAYWARD        CLOUDY    62  50  64 S8        29.76S
SIREN          CLOUDY    62  53  71 CALM      29.73S
CUMBERLAND     CLOUDY    63  54  72 SE8       29.75S
RICE LAKE      MOSUNNY   64  54  72 SE9       29.76F
CHETEK         MOSUNNY   65  56  73 SE12G17   29.76S
LADYSMITH      PTSUNNY   62  53  71 SE7       29.79S
EAU CLAIRE     SUNNY     66  55  67 S9        29.76R
MENOMONIE      SUNNY     65  57  73 SE8       29.75S
NEW RICHMOND   CLOUDY    64  53  68 S8        29.74R
OSCEOLA        CLOUDY    64  55  73 S7        29.76R
$$

WIZ003>005-009-010-017-018-261500-
NORTH CENTRAL WISCONSIN

CITY           SKY/WX    TMP DP  RH WIND       PRES   REMARKS
MANITOWISH WTR CLOUDY    58  58  99 S6        29.80F
ARBOR VITAE    CLOUDY    59  55  87 SE7       29.81S
WOODRUFF       CLOUDY    59  55  87 SE7       29.81S
RHINELANDER    CLOUDY    58  54  86 SE6       29.83S
EAGLE RIVER    CLOUDY    57  51  78 SE5       29.82S
LAND O LAKES   CLOUDY    58  53  84 S5        29.84R
PHILLIPS       CLOUDY    60  54  82 SE5       29.79S
TOMAHAWK       CLOUDY    57  53  86 CALM      29.82S
MEDFORD        CLOUDY    60  53  79 SE6       29.80F
MERRILL        CLOUDY    58  56  92 SE3       29.83S
$$

WIZ029-030-035-036-043>047-261500-
CENTRAL WISCONSIN

CITY           SKY/WX    TMP DP  RH WIND       PRES   REMARKS
WAUSAU         CLOUDY    60  55  83 E7        29.81S
MOSINEE        PTSUNNY   59  59 100 E5        29.83S
MARSHFIELD     SUNNY     62  56  80 SE9       29.79F
STEVENS POINT  PTSUNNY   58  56  92 E8        29.83S
WAUPACA        PTSUNNY   62  58  87 E6        29.83F
WAUTOMA        CLOUDY    63  56  78 SE8       29.83
WISC RAPIDS    SUNNY     63  58  83 SE7       29.83R
CAMP DOUGLAS   MOSUNNY   64  59  82 SE7       29.80R
$$

WIZ011>013-019>022-031-037>040-048>050-261500-
NORTHEAST WISCONSIN

CITY           SKY/WX    TMP DP  RH WIND       PRES   REMARKS
ANTIGO         CLOUDY    58  55  89 SE6       29.84S
SHAWANO        CLOUDY    62  55  77 S6        29.85S
OCONTO         CLOUDY    58  54  86 CALM      29.85S
STURGEON BAY   PTSUNNY   58  54  86 W3        29.86R
GREEN BAY      MOSUNNY   59  56  89 E5        29.85F
MANITOWOC      CLOUDY    55  52  89 E7        29.87S
APPLETON       PTSUNNY   59  55  88 SE7       29.83R
CLINTONVILLE   CLOUDY    61  54  77 SE7       29.84S
OSHKOSH        CLOUDY    62  54  74 E8        29.83S
$$

WIZ032>034-041-042-053>061-261500-
SOUTHWEST WISCONSIN

CITY           SKY/WX    TMP DP  RH WIND       PRES   REMARKS
LA CROSSE      MOSUNNY   65  58  78 CALM      29.78R
SPARTA         SUNNY     64  59  81 CALM      29.80R
VIROQUA        MOSUNNY   63  56  79 MISG      29.80R
BOSCOBEL       MOSUNNY   65  58  78 CALM      29.79S
PRAIRIE DU CHI CLOUDY    65  55  70 E7        29.76F
PLATTEVILLE    PTSUNNY   64  60  87 SE10      29.80S
$$

WIZ056-057-062-063-064-067-068-261500-
SOUTH CENTRAL WISCONSIN

CITY           SKY/WX    TMP DP  RH WIND       PRES   REMARKS
REEDSBURG      SUNNY     65  59  81 SE3       29.80S
BARABOO/DELLS  SUNNY     66  57  73 SE8       29.80F
LONE ROCK      CLOUDY    63  56  78 E8        29.79S
MINERAL POINT  MOSUNNY   64  59  82 SE7       29.80S
MADISON        PTSUNNY   64  56  75 SE5       29.81S
MIDDLETON      SUNNY     66  58  74 E5        29.82F
WATERTOWN      CLOUDY    63  57  82 SE7       29.84R
MONROE         MOSUNNY   63  55  77 E6        29.80F
JANESVILLE     MOSUNNY   66  57  72 SE3       29.83R
$$

WIZ051-052-058>065-066-070>072-261500-
SOUTHEAST WISCONSIN

CITY           SKY/WX    TMP DP  RH WIND       PRES   REMARKS
MILWAUKEE      PTSUNNY   56  54  93 E5        29.87R FOG
WAUKESHA       SUNNY     59  54  82 E7        29.86S
MILWAUKEE/TIMM MOSUNNY   59  52  77 SE6       29.86F
RACINE         CLOUDY    58  52  80 MISG      29.88S
KENOSHA        CLOUDY    59  53  80 E7        29.87R
FOND DU LAC    MOSUNNY   64  53  67 E7        29.84F
SHEBOYGAN      MOSUNNY   57  55  93 E5        29.86S
WEST BEND      SUNNY     59  55  88 SE5       29.85F
JUNEAU         CLOUDY    60  55  83 SE6       29.85S
$$

LSZ147-162-261500-
LAKE SUPERIOR

STATION/POSITION TIME  TEMP    WIND        PRES    WAVE
                       AIR SEA DIR/SP/G            HT/PER
                 (UTC) (F)     (DEG/KT/KT) (MB)    (FT/S)
W MID LAKE BUOY  1250   43 37  230/  2/  4 1008.8F   1
DEVILS ISLAND    1400   55      80/  8/  8 1007.8F
PORT WING        1330   45     350/  3/  4 1007.1F
SAXON HARBOR     1340   51     330/  1/  2 1007.8S
$$

LMZ867-665-643>646-261500-
LAKE MICHIGAN

STATION/POSITION TIME  TEMP    WIND        PRES    WAVE
                       AIR SEA DIR/SP/G            HT/PER
                 (UTC) (F)     (DEG/KT/KT) (MB)    (FT/S)
CHAMBERS ISLAND  1340   57     270/  4/  6 1010.5R
N MID LAKE BUOY  1350   44 41  310/  4/  4 1011.6F   0
NORTHPORT PIER   1340   53      CALM  /  2 1010.5S
SISTER BAY       1251   60        CALM       N/A
KEWAUNEE LAKESHO 1348   49     150/  3/  4 1010.7S
SHEBOYGAN LAKESH 1400   48      70/  6/  7 1011.3S
PORT WASHINGTON  1330   51      50/  4/  5 1012.5R
ATWATER BUOY     1309   47      CALM  /  2 1011.7R
MILWAUKEE LAKESH 1350   48      60/  5/  6   N/A
S MID LAKE BUOY  1250   45 45   20/  8/ 10 1011.5F   1/ 4
KENOSHA   LAKESH 1400   49      CALM  /  2 1011.9
$$

TC  - TEMPERATURE IN CELSIUS
VSB - VISIBILITY IN STATUTE MILES
WCI - WIND CHILL INDEX
HX  - HEAT INDEX





USA.gov is the U.S. government's official web portal to all federal, state and local government web resources and services.